Find Starlink 33939

NORAD ID: 63702 Int'l Des: 2025-087 Owner: SPXS Country: US Constellation: starlink operational
LEOCIRCULAR

現在のビュー

3D地球を読み込み中...

About Starlink 33939

Starlink 33939 (NORAD 63702) is a starlink constellation satellite (v2 mini) launched Apr 28, 2025 by SPXS of US. It operates in LEO, CIRCULAR orbit with a mass of 575.00 kg.

次回通過

Passes for default location (London). Set your location on the main map for personalized predictions.

高度履歴

Loading altitude history...

軌道要素

1 63702U 25087F 26264.59175303 .00014619 00000-0 48174-3 0 9991
2 63702 53.1596 28.1570 0001059 62.9176 297.1933 15.31712156 79213
Epoch: Sep 21, 2026 • Age: 15 hours

現在のステータス

高度 471.0 km
遠地点 / 近地点 N/A
速度 7.63 km/s
衛星直下点 16.95°N, 116.3°E
打ち上げ日 Apr 28, 2025
運用期間 1.3 years
タイプ internet

技術仕様

分類 Payload
質量 575.00 kg
乾燥質量 530.00 kg
長さ 0.30 m
スパン 29.00 m
形状 ? Box + pan
製造者 SPXS
バスタイプ Starlink V2MO
フェーズステータス In Orbit
所有者/国 SPXS/US

Most Searched